EW2958 Weather Reports


Display with metric or nautical units.
time (UTC)temp
F
wind
direction
speed
MPH
gust
MPH
rain 1hr
in
rain 24hr
in
rain mn
in
humidity
%
barometer
mb
20260905211514 50 275 7.0 14.0 0.00 0.12 0.00 88 1018.7
20260905210012 50 280 8.0 13.0 0.00 0.12 0.00 88 1018.4
20260905204511 50 270 5.0 10.0 0.00 0.12 0.00 88 1018.2
20260905203006 51 271 8.0 14.0 0.00 0.12 0.00 88 1017.8
20260905201503 51 266 9.0 15.0 0.00 0.12 0.00 88 1017.6
20260905200001 51 257 7.0 15.0 0.00 0.13 0.00 87 1017.4
20260905194601 51 267 8.0 13.0 0.00 0.13 0.00 87 1017.5
20260905193058 51 288 6.0 12.0 0.00 0.13 0.00 87 1017.4
20260905191609 51 269 6.0 12.0 0.00 0.13 0.00 88 1017.3
20260905190053 51 275 7.0 15.0 0.00 0.13 0.00 89 1017.1
20260905184604 51 278 6.0 17.0 0.00 0.14 0.00 89 1016.7
20260905183049 51 269 8.0 13.0 0.00 0.14 0.00 90 1016.5
20260905181544 51 288 8.0 14.0 0.00 0.14 0.00 90 1016.2
20260905180049 51 266 7.0 17.0 0.00 0.14 0.00 90 1016.1
20260905174545 51 248 8.0 15.0 0.00 0.14 0.00 89 1015.9
20260905173038 51 264 12.0 20.0 0.00 0.14 0.00 88 1015.7
20260905171535 51 288 8.0 16.0 0.00 0.14 0.00 88 1015.4
20260905170032 52 276 9.0 17.0 0.00 0.14 0.00 87 1015.1
20260905164501 52 280 9.0 19.0 0.00 0.16 0.00 86 1014.9
20260905163105 52 266 8.0 18.0 0.00 0.16 0.00 85 1014.6
20260905161556 52 279 9.0 18.0 0.00 0.16 0.00 85 1014.4
20260905160058 52 254 12.0 21.0 0.00 0.16 0.00 85 1014.2
20260905154552 52 275 13.0 22.0 0.00 0.16 0.00 85 1013.8
20260905153053 52 276 14.0 22.0 0.00 0.16 0.00 85 1013.5
20260905151546 52 251 11.0 21.0 0.00 0.16 0.00 86 1013.2
20260905150041 51 275 10.0 24.0 0.00 0.16 0.00 86 1013.0
20260905144546 51 275 12.0 18.0 0.00 0.18 0.00 86 1012.6
20260905143036 52 269 10.0 23.0 0.00 0.18 0.00 85 1012.3
20260905141548 52 248 12.0 21.0 0.00 0.18 0.00 83 1012.2
20260905140025 52 269 10.0 17.0 0.00 0.18 0.00 83 1012.0
20260905134523 52 250 9.0 17.0 0.00 0.24 0.18 83 1011.8
20260905133024 52 268 9.0 18.0 0.00 0.24 0.18 85 1011.4
20260905131521 52 275 12.0 21.0 0.00 0.24 0.18 85 1011.0
20260905130016 52 248 12.0 26.0 0.00 0.24 0.18 84 1010.6
20260905124514 52 267 12.0 21.0 0.00 0.25 0.18 84 1010.2
20260905123010 52 260 15.0 26.0 0.00 0.25 0.18 84 1009.8
20260905121509 52 284 15.0 24.0 0.00 0.25 0.18 84 1009.5
20260905120009 52 266 11.0 24.0 0.00 0.25 0.18 83 1009.4
20260905114508 52 269 15.0 26.0 0.00 0.26 0.18 82 1009.2
20260905113008 52 218 12.0 25.0 0.00 0.26 0.18 82 1008.8
20260905111506 52 274 12.0 24.0 0.00 0.26 0.18 81 1008.5
20260905110010 52 256 13.0 23.0 0.00 0.27 0.18 82 1008.2
20260905104505 52 256 12.0 23.0 0.00 0.27 0.18 82 1008.2
20260905103005 52 262 12.0 23.0 0.00 0.27 0.18 82 1007.9
20260905101513 52 281 15.0 24.0 0.00 0.27 0.18 81 1007.4
20260905100003 52 301 10.0 23.0 0.00 0.27 0.18 80 1007.0
20260905094503 52 302 9.0 23.0 0.00 0.27 0.18 80 1007.0
20260905093003 51 252 10.0 19.0 0.00 0.27 0.18 81 1006.7
20260905091614 51 293 8.0 18.0 0.00 0.27 0.18 81 1006.4
20260905090057 51 261 11.0 22.0 0.00 0.27 0.18 80 1006.0
20260905084556 51 253 13.0 24.0 0.00 0.27 0.18 85 1005.6
20260905083056 50 272 11.0 20.0 0.00 0.27 0.18 91 1005.6
20260905081551 50 265 11.0 22.0 0.00 0.27 0.18 91 1005.0
20260905080050 51 296 11.0 19.0 0.00 0.27 0.18 91 1004.6
20260905074558 51 288 9.0 18.0 0.01 0.27 0.18 91 1004.2
20260905073101 51 281 9.0 17.0 0.01 0.27 0.18 91 1004.0
20260905071548 50 270 12.0 21.0 0.02 0.27 0.18 91 1004.2
20260905070048 50 266 10.0 22.0 0.02 0.27 0.18 91 1004.1
20260905063048 50 259 11.0 26.0 0.06 0.26 0.17 91 1004.0
20260905061601 50 267 15.0 26.0 0.05 0.25 0.17 91 1003.8
20260905060047 49 295 13.0 29.0 0.05 0.25 0.17 89 1003.8
20260905054541 53 303 12.0 21.0 0.02 0.20 0.12 89 1002.9
20260905053039 53 290 14.0 23.0 0.02 0.20 0.12 89 1002.8
20260905051540 53 270 9.0 22.0 0.02 0.20 0.12 90 1002.7
20260905050039 52 248 9.0 25.0 0.02 0.20 0.12 89 1002.8
20260905044550 58 252 11.0 24.0 0.00 0.18 0.09 68 1002.7
20260905043036 61 261 12.0 23.0 0.00 0.18 0.09 59 1002.1
20260905041535 62 283 13.0 23.0 0.00 0.18 0.09 57 1002.1
20260905040039 60 274 17.0 38.0 0.00 0.18 0.09 56 1002.1
20260905034547 62 305 11.0 28.0 0.00 0.18 0.09 55 1002.0
20260905033051 61 272 12.0 28.0 0.00 0.18 0.09 59 1002.1
20260905031532 61 288 12.0 33.0 0.00 0.18 0.09 59 1002.4
20260905030030 62 300 12.0 34.0 0.00 0.18 0.09 60 1002.5
20260905024532 61 304 16.0 30.0 0.00 0.18 0.09 63 1002.6
20260905023100 60 272 17.0 30.0 0.00 0.18 0.09 65 1002.6
20260905021530 55 260 20.0 32.0 0.00 0.18 0.09 87 1002.6
20260905020030 55 278 15.0 32.0 0.03 0.18 0.09 88 1002.7
20260905014529 54 289 12.0 26.0 0.03 0.18 0.09 90 1002.6
20260905013029 53 342 13.0 23.0 0.03 0.18 0.09 90 1002.7
20260905011524 52 300 12.0 36.0 0.03 0.18 0.09 85 1003.0
20260905010023 62 240 23.0 37.0 0.00 0.15 0.06 62 1002.9
20260905004519 62 275 11.0 30.0 0.00 0.15 0.06 64 1002.3
20260905003017 62 281 9.0 24.0 0.00 0.15 0.06 67 1002.1
20260905001520 61 281 7.0 16.0 0.00 0.15 0.06 69 1002.2
20260905000014 61 311 9.0 20.0 0.00 0.15 0.06 69 1002.3
20260904234517 60 319 6.0 16.0 0.00 0.15 0.06 74 1002.4
20260904233011 60 298 7.0 20.0 0.00 0.15 0.06 73 1002.6
20260904231512 60 312 9.0 23.0 0.00 0.15 0.06 72 1002.4
20260904230010 60 297 6.0 20.0 0.00 0.15 0.06 74 1002.6
20260904224507 59 339 5.0 15.0 0.00 0.15 0.06 75 1002.6
20260904223007 59 336 8.0 19.0 0.00 0.15 0.06 75 1002.5
20260904221506 59 342 10.0 16.0 0.00 0.15 0.06 76 1002.7
20260904220004 58 8 4.0 11.0 0.00 0.15 0.06 77 1002.8
20260904214600 58 18 7.0 14.0 0.00 0.15 0.06 78 1002.9
20260904213059 57 19 7.0 12.0 0.00 0.15 0.06 78 1003.0